Flag for U.S.A. Weather past 2 weeks in Montpelier, Vermont, U.S.A.

Now
34 °F

Clear.


Feels Like: 26 °F
Forecast: 31 / 43 °F
Wind: 10 mph from Northwest

Location: Knapp State Airport

Current Time: Dec 28, 2014 at 6:47:39 PM

Latest Report: Dec 28, 2014 at 5:51 PM


Visibility: 10 mi

Pressure: 29.93 "Hg

Humidity: 67%

Dew point: 24 °F

Location of MontpelierLocation

Historic Weather in Montpelier — Graph

°F

Montpelier temperature yesterday

Maximum temperature yesterday: 41 °F (at 11:51 PM)
Minimum temperature yesterday: 33 °F (at 12:51 AM)
Average temperature yesterday: 38 °F

Past Weeks' High & Low Weather Summary

 TemperatureHumidityPressure
High46 °F (Dec 25, 6:00 AM)100% (Dec 14, 3:51 AM)30.45 "Hg (Dec 14, 3:51 AM)
Low7 °F (Dec 20, 5:51 AM)55% (Dec 25, 10:51 PM)29.41 "Hg (Dec 25, 4:51 AM)
Average30 °F86%30.06 "Hg
* Reported Dec 13 4:51 PM — Dec 28 4:51 PM, Montpelier, Weather by CustomWeather, © 2014

Note: Actual official high and low records may vary slightly from our data, if they occured in-between our weather recording intervals... More about our weather records

Advertising

Montpelier weather history for previous 24 hours

 ConditionsComfort  
Time TempWeatherWind HumidityBarometerVisibility
4:51 PM
Dec 28
35 °FClear.13 mph64%29.90 "Hg10 mi
3:51 PM37 °FSunny.14 mph62%29.88 "Hg10 mi
2:51 PM39 °FPassing clouds.7 mph62%29.87 "Hg10 mi
1:51 PM39 °FPassing clouds.7 mph67%29.85 "Hg10 mi
12:51 PM39 °FPartly sunny.6 mph79%29.82 "Hg10 mi
11:51 AM39 °FLight rain. Mostly cloudy.16 mph79%29.81 "Hg5 mi
10:51 AM39 °FMostly cloudy.8 mph86%29.81 "Hg10 mi
9:51 AM42 °FMostly cloudy.7 mph85%29.81 "Hg10 mi
8:51 AM43 °FMostly cloudy.9 mph79%29.79 "Hg10 mi
7:51 AM43 °FCloudy.6 mph79%29.78 "Hg10 mi
7:01 AM43 °FLight rain. Mostly cloudy.7 mph82%29.75 "Hg10 mi
5:51 AM43 °FLight rain. Mostly cloudy.7 mph82%29.78 "Hg10 mi
4:51 AM42 °FLight rain. Mostly cloudy.10 mph85%29.78 "Hg10 mi
3:51 AM44 °FLight rain. Overcast.12 mph76%29.81 "Hg10 mi
2:51 AM44 °FLight rain. Mostly cloudy.9 mph71%29.83 "Hg9 mi
1:51 AM42 °FOvercast.9 mph73%29.85 "Hg10 mi
12:51 AM41 °FOvercast.9 mph74%29.88 "Hg10 mi
11:51 PM
Dec 27
41 °FOvercast.16 mph74%29.92 "Hg10 mi
10:51 PM39 °FMostly cloudy.3 mph76%29.96 "Hg10 mi
9:51 PM38 °FPassing clouds.8 mph79%30.00 "Hg10 mi
8:51 PM39 °FClear.8 mph76%30.03 "Hg10 mi
7:51 PM39 °FMostly cloudy.5 mph76%30.07 "Hg10 mi
6:51 PM38 °FOvercast.7 mph79%30.10 "Hg10 mi
Weather by CustomWeather, © 2014

See weather overviewHow to use our weather pages